Hourly Data Report for September 08, 2017

All times are specified in Local Standard Time (LST). Add 1 hour to adjust for Daylight Saving Time where and when it is observed.

KITCHENER/WATERLOO
ONTARIO

43°27'39.000" N
80°22'43.000" W
321.60 m
6144239
71368
YKF

Download Data

Hourly Data (September 2017)
Hourly Data Report for September 8, 2017
Temp Definition
°C
Dew Point Temp Definition
°C
Rel Hum Definition
%
Wind Dir Definition
10's deg

Wind Spd Definition
km/h
Visibility Definition
km
Stn Press Definition
kPa
Hmdx Definition


Wind Chill Definition


Weather Definition


TIME
00:00 Legend Double Dagger 11.0 8.9 87 25 9 16.1 97.70     LegendNANA
01:00 Legend Double Dagger 11.1 9.4 89 26 15 16.1 97.72     LegendNANA
02:00 Legend Double Dagger 10.8 9.3 90 25 13 16.1 97.76     Rain
03:00 Legend Double Dagger 10.0 8.9 93 32 13 16.1 97.83     Rain
04:00 Legend Double Dagger 9.8 8.9 94 28 11 16.1 97.87     LegendNANA
05:00 Legend Double Dagger 9.8 9.0 95 28 8 16.1 97.90     Rain
06:00 Legend Double Dagger 9.6 9.0 96 31 5 16.1 97.98     Rain
07:00 Legend Double Dagger 10.8 9.6 92 30 13 16.1 98.05     Rain
08:00 Legend Double Dagger 11.2 9.9 91 31 9 16.1 98.12     Rain
09:00 Legend Double Dagger 12.2 9.7 85 32 9 16.1 98.18     LegendNANA
10:00 Legend Double Dagger 14.0 9.9 76 33 11 16.1 98.22     LegendNANA
11:00 Legend Double Dagger 14.4 9.0 70 33 15 16.1 98.27     LegendNANA
12:00 Legend Double Dagger 14.9 8.5 65 32 15 16.1 98.31     LegendNANA
13:00 Legend Double Dagger 13.4 10.2 81 3 5 16.1 98.36     Rain
14:00 Legend Double Dagger 16.8 10.2 65 35 21 16.1 98.37     LegendNANA
15:00 Legend Double Dagger 17.1 8.6 57 32 18 16.1 98.38     LegendNANA
16:00 Legend Double Dagger 17.2 8.8 57 34 24 16.1 98.40     LegendNANA
17:00 Legend Double Dagger 15.9 6.9 55 33 18 16.1 98.47     LegendNANA
18:00 Legend Double Dagger 14.2 8.1 66 34 21 16.1 98.53     LegendNANA
19:00 Legend Double Dagger 10.6 6.6 76 35 17 16.1 98.63     LegendNANA
20:00 Legend Double Dagger 8.2 6.0 86 33 8 16.1 98.70     LegendNANA
21:00 Legend Double Dagger 7.8 6.4 91   0 16.1 98.75     LegendNANA
22:00 Legend Double Dagger 6.9 5.9 93 33 8 16.1 98.78     LegendNANA
23:00 Legend Double Dagger 6.9 6.2 95 34 8 16.1 98.84     LegendNANA

Notes on Data Quality.

Legend

  • E = Estimated
  • M = Missing
  • NA = Not Available
  • ‡ = Partner data that is not subject to review by the National Climate Archives
Date modified: